When you browse on this site, cookies collect data to enhance your experience and personalize the content and advertising you see.
Visit our Privacy Policy to learn more. By continuing to use the site, you agree to this use of cookies and data.
  • In Slovakia
  • List of Countries
  • For 7 days
  • Water Temperature
  • Weather Map
  • Weather Widgets
  • user-avatar
    Login

    Hourly Weather Mendoza

    Today, 16 October, Wednesday

    Time Temperature Precipitation Wind Pressure Humidity
    00:00 +10°C° 0 mm 1 mps 700 mmHg 59%
    01:00 +10°C° 0 mm 1 mps 699 mmHg 59%
    02:00 +9°C° 0 mm 1 mps 699 mmHg 62%
    03:00 +9°C° 0 mm 1 mps 699 mmHg 65%
    04:00 +8°C° 0 mm 1 mps 698 mmHg 69%
    05:00 +10°C° 0 mm 1 mps 699 mmHg 64%
    06:00 +11°C° 0 mm 1 mps 699 mmHg 60%
    07:00 +12°C° 0 mm 1 mps 699 mmHg 56%
    08:00 +13°C° 0 mm 2 mps 699 mmHg 52%
    09:00 +14°C° 0 mm 3 mps 699 mmHg 48%
    10:00 +16°C° 0 mm 3 mps 698 mmHg 44%
    11:00 +18°C° 0 mm 3 mps 698 mmHg 42%
    12:00 +19°C° 0 mm 3 mps 698 mmHg 39%
    13:00 +20°C° 0 mm 3 mps 697 mmHg 37%
    14:00 +20°C° 0 mm 3 mps 697 mmHg 36%
    15:00 +20°C° 0 mm 3 mps 696 mmHg 36%
    16:00 +21°C° 0 mm 2 mps 696 mmHg 36%
    17:00 +19°C° 0.1 mm 3 mps 697 mmHg 42%
    18:00 +18°C° 0.1 mm 3 mps 698 mmHg 47%
    19:00 +17°C° 0.1 mm 3 mps 698 mmHg 53%
    20:00 +17°C° 0 mm 3 mps 698 mmHg 54%
    21:00 +17°C° 0 mm 2 mps 699 mmHg 56%
    22:00 +16°C° 0 mm 1 mps 699 mmHg 57%
    23:00 +15°C° 0 mm 1 mps 699 mmHg 62%

    Tomorrow, 17 October, Thursday

    Time Temperature Precipitation Wind Pressure Humidity
    00:00 +15°C° 0 mm 2 mps 699 mmHg 66%
    01:00 +14°C° 0 mm 2 mps 698 mmHg 71%
    02:00 +13°C° 0.1 mm 2 mps 698 mmHg 71%
    03:00 +13°C° 0.1 mm 2 mps 698 mmHg 70%
    04:00 +13°C° 0.1 mm 2 mps 698 mmHg 70%
    05:00 +14°C° 0.1 mm 2 mps 699 mmHg 67%
    06:00 +15°C° 0.1 mm 2 mps 699 mmHg 63%
    07:00 +16°C° 0.1 mm 2 mps 700 mmHg 59%
    08:00 +17°C° 0 mm 2 mps 700 mmHg 56%
    09:00 +18°C° 0 mm 2 mps 700 mmHg 52%
    10:00 +20°C° 0 mm 2 mps 700 mmHg 48%
    11:00 +21°C° 0.1 mm 2 mps 700 mmHg 44%
    12:00 +21°C° 0.1 mm 3 mps 699 mmHg 41%
    13:00 +22°C° 0.1 mm 3 mps 699 mmHg 37%
    14:00 +23°C° 0 mm 2 mps 699 mmHg 36%
    15:00 +23°C° 0 mm 2 mps 699 mmHg 35%
    16:00 +23°C° 0 mm 2 mps 698 mmHg 34%
    17:00 +23°C° 0 mm 2 mps 699 mmHg 36%
    18:00 +21°C° 0 mm 3 mps 699 mmHg 38%
    19:00 +20°C° 0 mm 3 mps 700 mmHg 40%
    20:00 +20°C° 0 mm 2 mps 700 mmHg 42%
    21:00 +20°C° 0 mm 2 mps 700 mmHg 44%
    22:00 +20°C° 0 mm 1 mps 701 mmHg 45%
    23:00 +19°C° 0.1 mm 2 mps 700 mmHg 48%

    Day after tomorrow, 18 October, Friday

    Time Temperature Precipitation Wind Pressure Humidity
    00:00 +18°C° 0.1 mm 2 mps 700 mmHg 50%
    01:00 +18°C° 0.1 mm 3 mps 700 mmHg 52%
    02:00 +17°C° 0 mm 3 mps 700 mmHg 56%
    03:00 +17°C° 0 mm 3 mps 700 mmHg 59%
    04:00 +15°C° 0 mm 4 mps 700 mmHg 62%
    05:00 +15°C° 0 mm 4 mps 700 mmHg 63%
    06:00 +16°C° 0 mm 3 mps 700 mmHg 63%
    07:00 +17°C° 0 mm 3 mps 700 mmHg 64%
    08:00 +17°C° 0 mm 3 mps 700 mmHg 60%
    09:00 +18°C° 0 mm 3 mps 700 mmHg 56%
    10:00 +19°C° 0 mm 3 mps 700 mmHg 53%
    11:00 +20°C° 0 mm 3 mps 700 mmHg 50%
    12:00 +21°C° 0 mm 2 mps 700 mmHg 47%
    13:00 +23°C° 0 mm 2 mps 700 mmHg 44%
    14:00 +23°C° 0 mm 2 mps 700 mmHg 44%
    15:00 +23°C° 0 mm 2 mps 699 mmHg 43%
    16:00 +24°C° 0 mm 2 mps 699 mmHg 43%
    17:00 +21°C° 0.6 mm 2 mps 699 mmHg 51%
    18:00 +20°C° 0.6 mm 2 mps 700 mmHg 60%
    19:00 +19°C° 0.6 mm 2 mps 700 mmHg 68%
    20:00 +18°C° 1.4 mm 2 mps 700 mmHg 72%
    21:00 +18°C° 1.4 mm 3 mps 700 mmHg 75%
    22:00 +17°C° 1.4 mm 3 mps 701 mmHg 79%
    23:00 +17°C° 0.8 mm 3 mps 700 mmHg 80%

    19 October, Saturday

    Time Temperature Precipitation Wind Pressure Humidity
    00:00 +17°C° 0.8 mm 4 mps 700 mmHg 81%
    01:00 +15°C° 0.8 mm 4 mps 699 mmHg 82%
    02:00 +15°C° 0.1 mm 4 mps 699 mmHg 82%
    03:00 +16°C° 0.1 mm 3 mps 699 mmHg 82%
    04:00 +16°C° 0.1 mm 3 mps 699 mmHg 81%
    05:00 +16°C° 0.4 mm 3 mps 699 mmHg 81%
    06:00 +16°C° 0.4 mm 3 mps 699 mmHg 80%
    07:00 +16°C° 0.4 mm 3 mps 699 mmHg 79%
    08:00 +17°C° 0.4 mm 3 mps 699 mmHg 77%
    09:00 +17°C° 0.4 mm 3 mps 699 mmHg 76%
    10:00 +18°C° 0.4 mm 3 mps 699 mmHg 75%
    11:00 +18°C° 0.2 mm 3 mps 698 mmHg 74%
    12:00 +18°C° 0.2 mm 3 mps 698 mmHg 73%
    13:00 +18°C° 0.2 mm 3 mps 698 mmHg 73%
    14:00 +18°C° 0.1 mm 3 mps 697 mmHg 72%
    15:00 +18°C° 0.1 mm 4 mps 697 mmHg 71%
    16:00 +18°C° 0.1 mm 4 mps 696 mmHg 70%
    17:00 +18°C° 1.5 mm 4 mps 696 mmHg 74%
    18:00 +17°C° 1.5 mm 3 mps 697 mmHg 77%
    19:00 +16°C° 1.5 mm 3 mps 697 mmHg 81%
    20:00 +16°C° 4 mm 3 mps 697 mmHg 84%
    21:00 +16°C° 4 mm 3 mps 697 mmHg 86%
    22:00 +14°C° 4 mm 3 mps 697 mmHg 89%
    23:00 +14°C° 2.2 mm 4 mps 697 mmHg 89%

    20 October, Sunday

    Time Temperature Precipitation Wind Pressure Humidity
    00:00 +14°C° 2.2 mm 5 mps 697 mmHg 89%
    01:00 +14°C° 2.2 mm 5 mps 696 mmHg 90%
    02:00 +14°C° 1.8 mm 6 mps 697 mmHg 88%
    03:00 +13°C° 1.8 mm 6 mps 697 mmHg 86%
    04:00 +13°C° 1.8 mm 6 mps 698 mmHg 84%
    05:00 +13°C° 0.4 mm 5 mps 698 mmHg 80%
    06:00 +14°C° 0.4 mm 5 mps 699 mmHg 76%
    07:00 +14°C° 0.4 mm 4 mps 699 mmHg 73%
    08:00 +16°C° 0 mm 3 mps 700 mmHg 68%
    09:00 +17°C° 0 mm 3 mps 700 mmHg 63%
    10:00 +18°C° 0 mm 2 mps 700 mmHg 58%
    11:00 +19°C° 0 mm 2 mps 699 mmHg 55%
    12:00 +20°C° 0 mm 2 mps 699 mmHg 51%
    13:00 +21°C° 0 mm 3 mps 699 mmHg 48%
    14:00 +21°C° 0 mm 3 mps 699 mmHg 47%
    15:00 +21°C° 0 mm 3 mps 698 mmHg 45%
    16:00 +21°C° 0 mm 3 mps 698 mmHg 44%
    17:00 +21°C° 0 mm 3 mps 699 mmHg 47%
    18:00 +20°C° 0 mm 2 mps 699 mmHg 49%
    19:00 +19°C° 0 mm 2 mps 700 mmHg 52%
    20:00 +18°C° 0 mm 2 mps 700 mmHg 54%
    21:00 +18°C° 0 mm 2 mps 701 mmHg 55%
    22:00 +18°C° 0 mm 2 mps 701 mmHg 56%
    23:00 +17°C° 0 mm 2 mps 701 mmHg 62%

    21 October, Monday

    Time Temperature Precipitation Wind Pressure Humidity
    00:00 +16°C° 0 mm 2 mps 700 mmHg 68%
    01:00 +15°C° 0 mm 2 mps 700 mmHg 73%
    02:00 +15°C° 0 mm 1 mps 700 mmHg 74%
    03:00 +15°C° 0 mm 1 mps 700 mmHg 75%
    04:00 +14°C° 0 mm 1 mps 700 mmHg 76%
    05:00 +15°C° 0 mm 1 mps 700 mmHg 72%
    06:00 +16°C° 0 mm 1 mps 700 mmHg 68%
    07:00 +18°C° 0 mm 1 mps 701 mmHg 64%
    08:00 +18°C° 0 mm 2 mps 700 mmHg 59%
    09:00 +19°C° 0 mm 3 mps 700 mmHg 54%
    10:00 +21°C° 0 mm 3 mps 700 mmHg 50%
    11:00 +22°C° 0 mm 4 mps 700 mmHg 46%
    12:00 +23°C° 0 mm 4 mps 700 mmHg 42%
    13:00 +25°C° 0 mm 5 mps 699 mmHg 38%
    14:00 +25°C° 0 mm 5 mps 699 mmHg 36%
    15:00 +25°C° 0 mm 5 mps 699 mmHg 35%
    16:00 +25°C° 0 mm 4 mps 699 mmHg 33%
    17:00 +23°C° 0 mm 4 mps 699 mmHg 35%
    18:00 +22°C° 0 mm 4 mps 699 mmHg 37%
    19:00 +21°C° 0 mm 3 mps 699 mmHg 39%
    20:00 +21°C° 0 mm 3 mps 700 mmHg 41%
    21:00 +20°C° 0 mm 2 mps 700 mmHg 42%
    22:00 +20°C° 0 mm 1 mps 700 mmHg 43%
    23:00 +20°C° 0 mm 1 mps 700 mmHg 44%
    Show more